Location: Shepherdstown, WV
(39.4326°N, 77.8042°W)
Time: 10:49:55
(UTC-04:00)

Transit 2A - Pass Details

Date: 11 August 2021
Orbit: 595 x 964 km, 66.7° (Epoch: 18 September)

Event Time Altitude Azimuth Distance (km) Brightness Sun altitude
Exits shadow 04:00:42 24° 140° (SE) 1,288 7.1 -23.3°
Maximum altitude 04:02:03 28° 109° (ESE) 1,168 7.2 -23.1°
Drops below altitude 10° 04:05:58 10° 51° (NE) 2,054 9.3 -22.6°
Sets 04:08:35 0° 40° (NE) 3,025 10.6 -22.3°
